This demonstration page uses our WeatherBlox Daily Observations layout. Learn more.

Left ArrowRight Arrow

39.08367, -84.50855

Hourly Observations for March 8, 2015

Temp ( °F °C ) Dew Point ( °F °C ) Humidity (%) Winds ( mph kmh ) Pressure ( in mb ) Visibility ( mi km ) Precip ( " mm )
12:53 am 00:53 Clear 35 1.7 26 -3.3 70 70 SW 7 11 30.22 1023 10 16.0934 N/A
1:53 am 01:53 Clear 36 2.2 27 -2.8 70 70 N N/A 30.23 1024 10 16.0934 N/A
3:53 am 03:53 Clear 35 1.7 27 -2.8 72 72 N N/A 30.24 1024 10 16.0934 N/A
4:53 am 04:53 Clear 34 1.1 26 -3.3 73 73 N N/A 30.24 1024 10 16.0934 N/A
5:53 am 05:53 Clear 33 0.6 26 -3.3 75 75 S 6 9 30.25 1024 10 16.0934 N/A
6:53 am 06:53 Clear 28 -2.2 26 -3.3 92 92 N N/A 30.26 1025 10 16.0934 N/A
7:53 am 07:53 Clear 26 -3.3 24 -4.4 92 92 N N/A 30.27 1025 10 16.0934 N/A
8:53 am 08:53 Sunny 28 -2.2 27 -2.8 96 96 N N/A 30.27 1025 8 12.87472 N/A
9:53 am 09:53 Sunny 35 1.7 30 -1.1 82 82 N N/A 30.29 1026 10 16.0934 N/A
10:53 am 10:53 Sunny 40 4.4 30 -1.1 68 68 N N/A 30.29 1026 10 16.0934 N/A
11:53 am 11:53 Sunny 43 6.1 30 -1.1 60 60 SSW 3 6 30.29 1026 10 16.0934 N/A
12:53 pm 12:53 Sunny 45 7.2 31 -0.6 58 58 S 7 11 30.29 1026 10 16.0934 N/A
1:53 pm 13:53 Sunny 48 8.9 30 -1.1 50 50 S 3 6 30.27 1025 10 16.0934 N/A
2:53 pm 14:53 Sunny 48 9 28 -2 46 46 ESE 6 9 30.24 1024 10 16.0934 N/A
3:53 pm 15:53 Sunny 50 10 25 -3.9 38 38 N N/A 30.21 1023 10 16.0934 N/A
4:53 pm 16:53 Sunny 52 11.1 26 -3.3 37 37 SSW 3 6 30.19 1022 10 16.0934 N/A
5:53 pm 17:53 Sunny 51 10.6 31 -0.6 46 46 S 7 11 30.18 1022 10 16.0934 N/A
6:53 pm 18:53 Sunny 48 8.9 31 -0.6 52 52 SSW 5 7 30.18 1022 10 16.0934 N/A
7:53 pm 19:53 Clear 43 6.1 32 undefined 65 65 S 3 6 30.18 1022 10 16.0934 N/A
8:53 pm 20:53 Clear 38 3.3 31 -0.6 76 76 N N/A 30.19 1022 10 16.0934 N/A
9:53 pm 21:53 Clear 37 2.8 32 undefined 82 82 N N/A 30.19 1022 10 16.0934 N/A
10:53 pm 22:53 Clear 35 1.7 30 -1.1 82 82 N N/A 30.19 1022 10 16.0934 N/A
11:53 pm 23:53 Clear 35 1.7 31 -0.6 85 85 SSW 3 6 30.19 1022 10 16.0934 N/A

Powered by AerisWeather